Location: Nelson
(41.2830°S, 173.2830°E)
Time: 17:56:00
(UTC+12:00)

Cosmos 1825 - Pass Details

Date: 14 May 2021
Orbit: 500 x 507 km, 82.5° (Epoch: 19 June)

Event Time Altitude Azimuth Distance (km) Brightness Sun altitude
Rises 18:04:11 0° 358° (N) 2,596 6.0 -8.8°
Reaches altitude 10° 18:06:18 10° 0° (N) 1,720 5.1 -9.1°
Maximum altitude 18:10:03 72° 84° (E) 541 2.1 -9.8°
Drops below altitude 10° 18:13:52 10° 168° (SSE) 1,746 4.6 -10.5°
Sets 18:16:01 0° 170° (S) 2,639 5.5 -10.9°
